Date,TemperatureHighF,TemperatureAvgF,TemperatureLowF,DewpointHighF,DewpointAvgF,DewpointLowF,HumidityHigh,HumidityAvg,HumidityLow,PressureMaxIn,PressureMinIn,WindSpeedMaxMPH,WindSpeedAvgMPH,GustSpeedMaxMPH,PrecipitationSumIn
2013-10-1,91.1,80.4,72.6,74.8,65.4,58.4,62,60,58,30.08,30.02,6,1,6,0.00
2013-10-2,89.9,80.7,76.2,73.6,65.3,61.4,61,60,58,30.08,30.02,8,2,8,0.00
2013-10-3,95.8,83.1,77.1,79.1,67.6,62.1,62,60,57,30.08,30.02,6,1,9,0.00
2013-10-4,94.7,82.9,74.5,78.1,67.3,59.7,63,60,57,30.08,30.02,6,1,9,0.00
2013-10-5,93.0,79.3,73.0,74.9,64.1,58.8,63,60,56,30.05,27.73,7,1,12,0.00
2013-10-6,81.9,75.2,69.3,65.6,60.2,56.2,65,60,58,29.99,29.87,10,2,12,0.00
2013-10-7,76.6,67.1,54.1,57.0,51.2,43.8,77,59,33,30.07,29.96,12,4,14,0.00
2013-10-8,62.6,55.8,52.3,55.6,45.6,41.7,78,68,66,30.07,30.02,3,1,4,0.00
2013-10-9,81.7,68.3,57.2,67.2,55.2,45.9,66,63,60,30.16,30.04,7,2,7,0.00
2013-10-10,84.0,71.2,65.3,68.6,57.2,51.8,63,61,59,30.16,30.07,5,1,8,0.00
2013-10-11,87.4,73.0,63.7,71.8,58.8,50.4,64,61,58,30.13,30.04,8,1,8,0.00
2013-10-12,88.3,73.8,64.9,71.6,59.5,51.6,67,61,54,30.16,30.04,7,1,8,0.00
2013-10-13,87.8,74.2,66.4,71.6,60.0,52.9,66,61,57,30.19,30.10,6,1,6,0.00
2013-10-14,87.4,72.7,65.1,69.1,58.4,51.8,69,61,50,30.16,30.07,6,1,6,0.00
2013-10-15,85.6,69.5,63.1,70.7,56.2,49.9,66,63,60,30.13,30.04,4,1,8,0.00
2013-10-16,87.6,73.9,64.2,71.1,59.7,50.9,66,61,56,30.07,30.01,7,1,9,0.00
2013-10-17,84.4,75.5,66.9,69.1,61.2,53.9,64,61,59,30.04,29.98,10,3,13,0.00
2013-10-18,77.4,68.6,63.3,62.9,55.7,50.5,69,64,56,30.07,29.98,8,2,13,0.00
2013-10-19,69.1,64.0,60.1,55.0,51.2,47.4,66,63,61,30.07,29.95,6,2,13,0.00
2013-10-20,77.4,64.5,57.0,62.4,51.8,44.9,70,63,55,30.10,30.04,6,2,6,0.00
2013-10-21,74.7,65.7,58.8,61.1,52.9,46.7,65,63,61,30.10,30.04,6,1,6,0.00
2013-10-22,82.0,69.7,59.2,64.9,55.2,49.0,76,61,40,30.04,29.95,10,2,10,0.00
2013-10-23,74.3,60.7,48.0,54.4,44.5,33.2,86,59,24,30.16,30.04,11,3,13,0.00
2013-10-24,76.5,58.9,42.3,53.6,46.0,33.9,83,64,38,30.25,30.14,6,1,7,0.00
2013-10-25,65.8,54.3,41.5,45.2,39.4,33.2,85,60,32,30.40,30.25,13,2,13,0.00
2013-10-26,70.7,51.0,36.1,45.5,38.4,29.9,86,66,32,30.31,30.19,5,1,6,0.00
2013-10-27,72.9,56.4,41.7,58.8,45.8,33.0,78,68,58,30.20,30.13,5,1,6,0.00
2013-10-28,83.1,65.1,53.1,67.8,52.8,42.0,71,65,58,30.25,30.13,6,1,9,0.00
2013-10-29,82.2,67.2,56.8,67.7,54.6,45.2,68,64,60,30.28,30.22,7,1,7,0.00
2013-10-30,83.3,70.8,61.5,68.4,57.2,48.8,64,62,59,30.25,30.13,6,1,8,0.00
2013-10-31,85.3,77.7,69.6,70.3,63.0,56.0,62,61,59,30.13,29.92,11,3,15,0.00